• In Hungary
  • List of Countries
  • For 7 days
  • Water Temperature
  • Satellite Maps
  • Weather Map
  • News
  • Weather Widgets
  • user-avatar
    Login

    Hourly Weather Lakatunga

    Today, 18 February, Sunday

    Time Temperature Precipitation Wind Pressure Humidity
    00:00 +10°C° 0.3 mm 0 mps 542 mmHg 92%
    01:00 +10°C° 0 mm 1 mps 542 mmHg 90%
    02:00 +10°C° 0.1 mm 1 mps 541 mmHg 90%
    03:00 +10°C° 0.1 mm 1 mps 541 mmHg 90%
    04:00 +10°C° 0.1 mm 1 mps 541 mmHg 89%
    05:00 +11°C° 0.1 mm 1 mps 541 mmHg 89%
    06:00 +11°C° 0.1 mm 1 mps 542 mmHg 88%
    07:00 +12°C° 0 mm 1 mps 542 mmHg 85%
    08:00 +13°C° 0.1 mm 1 mps 543 mmHg 79%
    09:00 +15°C° 0.1 mm 1 mps 544 mmHg 73%
    10:00 +17°C° 0.1 mm 2 mps 545 mmHg 68%
    11:00 +17°C° 0.4 mm 2 mps 545 mmHg 68%
    12:00 +17°C° 0.4 mm 2 mps 545 mmHg 69%
    13:00 +18°C° 0.4 mm 2 mps 544 mmHg 69%
    14:00 +17°C° 0.9 mm 2 mps 544 mmHg 72%
    15:00 +16°C° 0.9 mm 2 mps 543 mmHg 74%
    16:00 +16°C° 0.9 mm 1 mps 542 mmHg 77%
    17:00 +15°C° 2 mm 1 mps 542 mmHg 81%
    18:00 +14°C° 2 mm 1 mps 542 mmHg 86%
    19:00 +13°C° 2 mm 1 mps 541 mmHg 90%
    20:00 +13°C° 1.8 mm 1 mps 542 mmHg 90%
    21:00 +13°C° 1.8 mm 1 mps 542 mmHg 91%
    22:00 +11°C° 1.8 mm 0 mps 542 mmHg 91%
    23:00 +12°C° 1.6 mm 1 mps 542 mmHg 90%

    Tomorrow, 19 February, Monday

    Time Temperature Precipitation Wind Pressure Humidity
    00:00 +12°C° 1.6 mm 1 mps 542 mmHg 90%
    01:00 +12°C° 1.6 mm 1 mps 542 mmHg 90%
    02:00 +12°C° 1.7 mm 1 mps 541 mmHg 90%
    03:00 +12°C° 1.7 mm 1 mps 541 mmHg 90%
    04:00 +11°C° 1.7 mm 1 mps 541 mmHg 90%
    05:00 +10°C° 1.8 mm 0 mps 541 mmHg 89%
    06:00 +10°C° 1.8 mm 0 mps 541 mmHg 88%
    07:00 +10°C° 1.8 mm 0 mps 541 mmHg 88%
    08:00 +11°C° 1.4 mm 0 mps 542 mmHg 86%
    09:00 +11°C° 1.4 mm 0 mps 542 mmHg 85%
    10:00 +12°C° 1.4 mm 1 mps 543 mmHg 84%
    11:00 +12°C° 1.7 mm 1 mps 543 mmHg 84%
    12:00 +13°C° 1.7 mm 1 mps 542 mmHg 83%
    13:00 +13°C° 1.7 mm 1 mps 542 mmHg 82%
    14:00 +13°C° 2.1 mm 1 mps 542 mmHg 83%
    15:00 +12°C° 2.1 mm 1 mps 541 mmHg 84%
    16:00 +12°C° 2.1 mm 1 mps 540 mmHg 84%
    17:00 +12°C° 1.7 mm 1 mps 541 mmHg 85%
    18:00 +12°C° 1.7 mm 1 mps 541 mmHg 87%
    19:00 +11°C° 1.7 mm 1 mps 541 mmHg 88%
    20:00 +11°C° 1.3 mm 1 mps 541 mmHg 89%
    21:00 +11°C° 1.3 mm 1 mps 541 mmHg 89%
    22:00 +11°C° 1.3 mm 1 mps 542 mmHg 90%
    23:00 +11°C° 1.6 mm 1 mps 542 mmHg 90%

    Day after tomorrow, 20 February, Tuesday

    Time Temperature Precipitation Wind Pressure Humidity
    00:00 +11°C° 1.6 mm 1 mps 541 mmHg 90%
    01:00 +10°C° 1.6 mm 0 mps 541 mmHg 90%
    02:00 +10°C° 1.3 mm 1 mps 541 mmHg 91%
    03:00 +10°C° 1.3 mm 1 mps 541 mmHg 91%
    04:00 +10°C° 1.3 mm 1 mps 540 mmHg 91%
    05:00 +10°C° 0.7 mm 1 mps 541 mmHg 90%
    06:00 +11°C° 0.7 mm 1 mps 541 mmHg 90%
    07:00 +10°C° 0.7 mm 0 mps 541 mmHg 89%
    08:00 +12°C° 0.3 mm 1 mps 543 mmHg 84%
    09:00 +14°C° 0.3 mm 1 mps 544 mmHg 78%
    10:00 +16°C° 0.3 mm 1 mps 545 mmHg 73%
    11:00 +16°C° 0.5 mm 1 mps 545 mmHg 72%
    12:00 +17°C° 0.5 mm 2 mps 545 mmHg 71%
    13:00 +17°C° 0.5 mm 2 mps 545 mmHg 70%
    14:00 +17°C° 0.5 mm 2 mps 544 mmHg 71%
    15:00 +17°C° 0.5 mm 2 mps 543 mmHg 72%
    16:00 +16°C° 0.5 mm 2 mps 543 mmHg 73%
    17:00 +15°C° 0.7 mm 2 mps 542 mmHg 78%
    18:00 +14°C° 0.7 mm 1 mps 542 mmHg 83%
    19:00 +12°C° 0.7 mm 1 mps 542 mmHg 88%
    20:00 +12°C° 0.4 mm 1 mps 542 mmHg 89%
    21:00 +12°C° 0.4 mm 1 mps 542 mmHg 89%
    22:00 +12°C° 0.4 mm 1 mps 543 mmHg 90%
    23:00 +12°C° 0.1 mm 1 mps 543 mmHg 90%

    21 February, Wednesday

    Time Temperature Precipitation Wind Pressure Humidity
    00:00 +11°C° 0.1 mm 1 mps 542 mmHg 90%
    01:00 +11°C° 0.1 mm 1 mps 542 mmHg 90%
    02:00 +11°C° 0.1 mm 1 mps 542 mmHg 90%
    03:00 +11°C° 0.1 mm 1 mps 541 mmHg 90%
    04:00 +10°C° 0.1 mm 1 mps 541 mmHg 90%
    05:00 +10°C° 0 mm 1 mps 541 mmHg 89%
    06:00 +11°C° 0 mm 1 mps 542 mmHg 87%
    07:00 +11°C° 0 mm 1 mps 542 mmHg 86%
    08:00 +13°C° 0 mm 1 mps 543 mmHg 79%
    09:00 +15°C° 0 mm 1 mps 545 mmHg 71%
    10:00 +18°C° 0 mm 1 mps 546 mmHg 64%
    11:00 +18°C° 0.3 mm 1 mps 546 mmHg 64%
    12:00 +18°C° 0.3 mm 2 mps 546 mmHg 64%
    13:00 +18°C° 0.3 mm 2 mps 546 mmHg 63%
    14:00 +18°C° 0.5 mm 2 mps 545 mmHg 66%
    15:00 +17°C° 0.5 mm 2 mps 544 mmHg 69%
    16:00 +17°C° 0.5 mm 2 mps 543 mmHg 71%
    17:00 +15°C° 0.3 mm 2 mps 543 mmHg 76%
    18:00 +14°C° 0.3 mm 2 mps 543 mmHg 81%
    19:00 +13°C° 0.3 mm 1 mps 542 mmHg 85%
    20:00 +13°C° 0.1 mm 1 mps 543 mmHg 86%
    21:00 +12°C° 0.1 mm 1 mps 543 mmHg 86%
    22:00 +12°C° 0.1 mm 1 mps 543 mmHg 86%
    23:00 +12°C° 0.1 mm 1 mps 543 mmHg 86%

    22 February, Thursday

    Time Temperature Precipitation Wind Pressure Humidity
    00:00 +11°C° 0.1 mm 1 mps 543 mmHg 87%
    01:00 +11°C° 0.1 mm 1 mps 542 mmHg 87%
    02:00 +11°C° 0.1 mm 1 mps 542 mmHg 87%
    03:00 +9°C° 0.1 mm 0 mps 541 mmHg 88%
    04:00 +9°C° 0.1 mm 0 mps 541 mmHg 88%
    05:00 +9°C° 0.1 mm 0 mps 541 mmHg 86%
    06:00 +9°C° 0.1 mm 0 mps 542 mmHg 85%
    07:00 +11°C° 0.1 mm 1 mps 542 mmHg 83%
    08:00 +13°C° 0 mm 1 mps 544 mmHg 75%
    09:00 +15°C° 0 mm 1 mps 545 mmHg 68%
    10:00 +18°C° 0 mm 1 mps 546 mmHg 60%
    11:00 +18°C° 0.3 mm 1 mps 546 mmHg 62%
    12:00 +18°C° 0.3 mm 2 mps 546 mmHg 63%
    13:00 +18°C° 0.3 mm 2 mps 545 mmHg 64%
    14:00 +17°C° 0.4 mm 2 mps 544 mmHg 67%
    15:00 +17°C° 0.4 mm 2 mps 544 mmHg 71%
    16:00 +16°C° 0.4 mm 2 mps 543 mmHg 74%
    17:00 +15°C° 0.2 mm 2 mps 542 mmHg 78%
    18:00 +14°C° 0.2 mm 2 mps 542 mmHg 81%
    19:00 +13°C° 0.2 mm 1 mps 542 mmHg 85%
    20:00 +12°C° 0 mm 1 mps 542 mmHg 86%
    21:00 +12°C° 0 mm 1 mps 542 mmHg 86%
    22:00 +11°C° 0 mm 1 mps 542 mmHg 87%
    23:00 +11°C° 0 mm 1 mps 542 mmHg 86%

    23 February, Friday

    Time Temperature Precipitation Wind Pressure Humidity
    00:00 +11°C° 0 mm 1 mps 542 mmHg 86%
    01:00 +11°C° 0 mm 1 mps 542 mmHg 85%
    02:00 +10°C° 0 mm 1 mps 541 mmHg 85%
    03:00 +10°C° 0 mm 1 mps 541 mmHg 84%
    04:00 +10°C° 0 mm 1 mps 540 mmHg 83%
    05:00 +10°C° 0 mm 1 mps 541 mmHg 82%
    06:00 +10°C° 0 mm 1 mps 541 mmHg 81%
    07:00 +10°C° 0 mm 1 mps 542 mmHg 81%
    08:00 +13°C° 0 mm 1 mps 543 mmHg 73%
    09:00 +15°C° 0 mm 1 mps 545 mmHg 66%
    10:00 +18°C° 0 mm 1 mps 546 mmHg 58%
    11:00 +19°C° 0.2 mm 1 mps 546 mmHg 60%
    12:00 +18°C° 0.2 mm 2 mps 545 mmHg 61%
    13:00 +18°C° 0.2 mm 2 mps 545 mmHg 62%
    14:00 +18°C° 0.2 mm 2 mps 544 mmHg 66%
    15:00 +17°C° 0.2 mm 2 mps 543 mmHg 69%
    16:00 +16°C° 0.2 mm 3 mps 542 mmHg 72%
    17:00 +15°C° 0.1 mm 2 mps 542 mmHg 77%
    18:00 +13°C° 0.1 mm 2 mps 541 mmHg 81%
    19:00 +12°C° 0.1 mm 1 mps 541 mmHg 85%
    20:00 +12°C° 0 mm 1 mps 541 mmHg 85%
    21:00 +11°C° 0 mm 1 mps 541 mmHg 85%
    22:00 +11°C° 0 mm 1 mps 542 mmHg 85%
    23:00 +11°C° 0 mm 1 mps 541 mmHg 84%
    Show more